Location: Camps Bay
(33.9517°S, 18.3844°E)
Time: 09:43:55
(UTC+00:00)

Cosmos 1777 Rocket - Pass Details

Date: 18 January 2020
Orbit: 758 x 776 km, 74.0° (Epoch: 27 February)

Event Time Altitude Azimuth Distance (km) Brightness Sun altitude
Exits shadow 02:08:19 33° 334° (NNW) 1,282 4.6 -18.8°
Maximum altitude 02:10:44 77° 253° (WSW) 801 4.0 -18.5°
Drops below altitude 10° 02:16:03 10° 166° (SSE) 2,337 7.3 -17.6°
Sets 02:18:27 0° 164° (SSE) 3,267 8.2 -17.3°
